Corinth, MS

8:09 PM CST on February 21, 2017 (GMT -0600)
Turner

Weather History for KCRX - November, 2013

Change the Weather History Date:

Saturday, November 30, 2013

  Actual Average Record
Temperature  
Mean Temperature 40 °F -  
Max Temperature 55 °F 57 °F 79 °F (1946)
Min Temperature 24 °F 35 °F 13 °F (1976)
Degree Days  
Heating Degree Days 26    
Moisture  
Dew Point 27 °F    
Average Humidity 64    
Maximum Humidity 93    
Minimum Humidity 29    
Precipitation  
Precipitation 0.00 in - - ()
Sea Level Pressure  
Sea Level Pressure 30.36 in    
Wind  
Wind Speed 3 mph (SSE)    
Max Wind Speed 13 mph    
Max Gust Speed 17 mph    
Visibility 10 miles    
Events      
Averages and records for this station are not official NWS values.
T = Trace of Precipitation, MM = Missing Value Source: NWS Daily Summary

Daily Weather History Graph

Daily Weather History Graph

Search for Another Location

Airport or City:

Trip Planner

Search our weather history database for the weather conditions in past years. The results will help you decide how hot, cold, wet, or windy it might be!

Date:

Astronomy

Nov. 30, 2013 Rise Set
Actual Time 6:43 AM CST 4:43 PM CST
Civil Twilight 6:15 AM CST 5:10 PM CST
Nautical Twilight 5:44 AM CST 5:41 PM CST
Astronomical Twilight 5:13 AM CST 6:12 PM CST
Moon 3:59 AM CST (11/30) 3:02 PM CST (11/30)
Length of Visible Light 10h 55m
Length of Day
9h 59m
Waning Crescent, 7% of the Moon is Illuminated
Nov 30
Waning Crescent
Dec 2
New
Dec 9
First Quarter
Dec 17
Full
Dec 25
Last Quarter

Hourly Weather History & Observations

Time (CST) Temp. Windchill Dew Point Humidity Pressure Visibility Wind Dir Wind Speed Gust Speed Precip Events Conditions
12:10 AM 28.4 °F - 26.6 °F 93% 30.45 in 8.0 mi Calm Calm - N/A   Clear
12:30 AM 28.4 °F - 26.6 °F 93% 30.45 in 10.0 mi Calm Calm - N/A   Clear
12:50 AM 28.4 °F - 26.6 °F 93% 30.45 in 10.0 mi Calm Calm - N/A   Clear
1:10 AM 26.6 °F - 24.8 °F 93% 30.44 in 10.0 mi Calm Calm - N/A   Clear
1:30 AM 28.4 °F - 26.6 °F 93% 30.43 in 10.0 mi Calm Calm - N/A   Clear
1:50 AM 28.4 °F 24.6 °F 26.6 °F 93% 30.43 in 10.0 mi SSE 3.5 mph - N/A   Partly Cloudy
2:10 AM 26.6 °F - 24.8 °F 93% 30.42 in 10.0 mi Calm Calm - N/A   Clear
2:30 AM 26.6 °F - 24.8 °F 93% 30.42 in 10.0 mi Calm Calm - N/A   Clear
2:50 AM 26.6 °F - 24.8 °F 93% 30.42 in 10.0 mi Calm Calm - N/A   Clear
3:10 AM 26.6 °F 22.6 °F 24.8 °F 93% 30.42 in 10.0 mi SE 3.5 mph - N/A   Clear
3:30 AM 26.6 °F - 24.8 °F 93% 30.42 in 10.0 mi Calm Calm - N/A   Clear
3:50 AM 26.6 °F - 24.8 °F 93% 30.42 in 10.0 mi Calm Calm - N/A   Clear
4:10 AM 26.6 °F - 24.8 °F 93% 30.42 in 10.0 mi Calm Calm - N/A   Clear
4:30 AM 26.6 °F - 24.8 °F 93% 30.43 in 10.0 mi Calm Calm - N/A   Clear
4:50 AM 24.8 °F - 23.0 °F 93% 30.43 in 10.0 mi Calm Calm - N/A   Clear
5:10 AM 24.8 °F - 23.0 °F 93% 30.44 in 10.0 mi Calm Calm - N/A   Clear
5:30 AM 26.6 °F - 23.0 °F 86% 30.44 in 10.0 mi Calm Calm - N/A   Clear
5:50 AM 24.8 °F 17.9 °F 23.0 °F 93% 30.45 in 10.0 mi SSE 5.8 mph - N/A   Clear
6:10 AM 26.6 °F 21.2 °F 24.8 °F 93% 30.44 in 10.0 mi South 4.6 mph - N/A   Clear
6:30 AM 24.8 °F - 21.2 °F 86% 30.45 in 10.0 mi Calm Calm - N/A   Clear
6:50 AM 24.8 °F - 21.2 °F 86% 30.46 in 9.0 mi Calm Calm - N/A   Clear
7:10 AM 24.8 °F - 23.0 °F 93% 30.47 in 9.0 mi Calm Calm - N/A   Clear
7:30 AM 26.6 °F - 24.8 °F 93% 30.47 in 10.0 mi Calm Calm - N/A   Clear
7:50 AM 28.4 °F - 26.6 °F 93% 30.47 in 10.0 mi Calm Calm - N/A   Clear
8:10 AM 30.2 °F - 26.6 °F 86% 30.47 in 10.0 mi Calm Calm - N/A   Clear
8:30 AM 32.0 °F - 28.4 °F 87% 30.47 in 10.0 mi Calm Calm - N/A   Clear
8:50 AM 35.6 °F 31.7 °F 32.0 °F 87% 30.47 in 10.0 mi SE 4.6 mph - N/A   Clear
9:10 AM 39.2 °F 35.0 °F 32.0 °F 75% 30.47 in 10.0 mi SE 5.8 mph - N/A   Clear
9:30 AM 41.0 °F 37.1 °F 32.0 °F 70% 30.47 in 10.0 mi SE 5.8 mph - N/A   Clear
9:50 AM 48.2 °F - 28.4 °F 46% 30.46 in 10.0 mi South 11.5 mph - N/A   Clear
10:10 AM 48.2 °F - 28.4 °F 46% 30.46 in 10.0 mi South 8.1 mph - N/A   Clear
10:30 AM 50.0 °F - 26.6 °F 40% 30.45 in 10.0 mi South 8.1 mph - N/A   Clear
10:50 AM 50.0 °F - 26.6 °F 40% 30.44 in 10.0 mi South 10.4 mph - N/A   Clear
11:10 AM 51.8 °F - 26.6 °F 38% 30.43 in 10.0 mi South 8.1 mph - N/A   Clear
11:30 AM 53.6 °F - 26.6 °F 35% 30.41 in 10.0 mi South 10.4 mph - N/A   Clear
11:50 AM 53.6 °F - 26.6 °F 35% 30.40 in 10.0 mi South 8.1 mph - N/A   Clear
12:10 PM 53.6 °F - 26.6 °F 35% 30.38 in 10.0 mi SSE 10.4 mph - N/A   Clear
12:30 PM 53.6 °F - 26.6 °F 35% 30.37 in 10.0 mi SSE 11.5 mph - N/A   Clear
12:50 PM 55.4 °F - 26.6 °F 33% 30.36 in 10.0 mi SSE 11.5 mph 16.1 mph N/A   Clear
1:10 PM 55.4 °F - 26.6 °F 33% 30.34 in 10.0 mi South 12.7 mph 16.1 mph N/A   Clear
1:30 PM 55.4 °F - 23.0 °F 29% 30.33 in 10.0 mi South 12.7 mph 17.3 mph N/A   Clear
1:50 PM 55.4 °F - 23.0 °F 29% 30.33 in 10.0 mi SSW 10.4 mph 17.3 mph N/A   Clear
2:10 PM 55.4 °F - 23.0 °F 29% 30.31 in 10.0 mi South 11.5 mph - N/A   Clear
2:30 PM 55.4 °F - 24.8 °F 31% 30.30 in 10.0 mi South 10.4 mph - N/A   Clear
2:50 PM 55.4 °F - 24.8 °F 31% 30.30 in 10.0 mi South 8.1 mph - N/A   Clear
3:10 PM 55.4 °F - 23.0 °F 29% 30.29 in 10.0 mi South 9.2 mph - N/A   Clear
3:30 PM 55.4 °F - 24.8 °F 31% 30.30 in 10.0 mi South 5.8 mph - N/A   Clear
3:50 PM 53.6 °F - 24.8 °F 33% 30.29 in 10.0 mi South 4.6 mph - N/A   Clear
4:10 PM 51.8 °F - 24.8 °F 35% 30.29 in 10.0 mi South 3.5 mph - N/A   Clear
4:30 PM 50.0 °F - 26.6 °F 40% 30.28 in 10.0 mi SSE 4.6 mph - N/A   Clear
4:50 PM 50.0 °F - 26.6 °F 40% 30.28 in 8.0 mi Calm Calm - N/A   Clear
5:10 PM 50.0 °F - 26.6 °F 40% 30.28 in 10.0 mi Calm Calm - N/A   Clear
5:30 PM 48.2 °F - 26.6 °F 43% 30.28 in 9.0 mi South 4.6 mph - N/A   Clear
5:50 PM 48.2 °F - 26.6 °F 43% 30.28 in 10.0 mi South 3.5 mph - N/A   Clear
6:10 PM 41.0 °F 39.0 °F 28.4 °F 61% 30.28 in 10.0 mi SSE 3.5 mph - N/A   Clear
6:30 PM 42.8 °F 40.1 °F 28.4 °F 57% 30.28 in 9.0 mi SSE 4.6 mph - N/A   Clear
6:50 PM 41.0 °F 39.0 °F 30.2 °F 65% 30.27 in 9.0 mi ESE 3.5 mph - N/A   Clear
7:10 PM 41.0 °F 38.0 °F 30.2 °F 65% 30.27 in 10.0 mi SSE 4.6 mph - N/A   Clear
7:30 PM 44.6 °F 42.2 °F 28.4 °F 53% 30.27 in 10.0 mi SSE 4.6 mph - N/A   Clear
7:50 PM 39.2 °F 35.9 °F 30.2 °F 70% 30.27 in 10.0 mi SSE 4.6 mph - N/A   Clear
8:10 PM 39.2 °F 35.9 °F 30.2 °F 70% 30.26 in 10.0 mi SSE 4.6 mph - N/A   Clear
8:30 PM 41.0 °F 36.4 °F 28.4 °F 61% 30.26 in 10.0 mi South 6.9 mph - N/A   Clear
8:50 PM 39.2 °F 35.9 °F 30.2 °F 70% 30.27 in 10.0 mi SSE 4.6 mph - N/A   Clear
9:10 PM 39.2 °F 34.2 °F 30.2 °F 70% 30.26 in 10.0 mi South 6.9 mph - N/A   Clear
9:30 PM 41.0 °F 36.4 °F 30.2 °F 65% 30.26 in 10.0 mi SSE 6.9 mph - N/A   Clear
9:50 PM 41.0 °F 36.4 °F 28.4 °F 61% 30.25 in 10.0 mi SSE 6.9 mph - N/A   Clear
10:10 PM 41.0 °F 37.1 °F 28.4 °F 61% 30.26 in 10.0 mi South 5.8 mph - N/A   Clear
10:30 PM 41.0 °F 35.8 °F 28.4 °F 61% 30.25 in 10.0 mi South 8.1 mph - N/A   Clear
10:50 PM 42.8 °F 39.3 °F 28.4 °F 57% 30.25 in 10.0 mi South 5.8 mph - N/A   Clear
11:10 PM 46.4 °F 42.9 °F 28.4 °F 50% 30.25 in 10.0 mi South 6.9 mph - N/A   Clear
11:30 PM 44.6 °F 41.4 °F 28.4 °F 53% 30.25 in 10.0 mi South 5.8 mph - N/A   Clear
11:50 PM 44.6 °F 41.4 °F 28.4 °F 53% 30.24 in 10.0 mi South 5.8 mph - N/A   Clear